User: anonymous   Login
Location: Alfords
(31.4624°N, 83.9238°W)
Time: 04:01:02
(UTC+00:00)
Language:

Envisat - Orbit

View from above orbital plane
View from above orbital plane
View from above satellite
View from above satellite

Ground track
Ground track

The orbit data is extracted from the following two-line orbital elements,

1 27386U 02009A   21288.77229287  .00000073  00000-0  37491-4 0  9990
2 27386  98.1596 276.7421 0001216  90.0673  83.4025 14.38047455 28294
Epoch (UTC): 15 October 2021 18:32:06
Eccentricity: 0.0001216
inclination: 98.1596°
perigee height: 764 km
apogee height: 766 km
right ascension of ascending node: 276.7421°
argument of perigee: 90.0673°
revolutions per day: 14.38047455
mean anomaly at epoch: 83.4025°
orbit number at epoch: 2829

The dashed part of the orbit path shows where the satellite is in the earth's shadow,  

DLR